Weather History for Kecskemet, Hungary

Change the Weather History Date:

Monday, December 3, 2012

  Actual Average (LHBP) Record (LHBP)
Temperature  
Mean Temperature 32 °F -  
Max Temperature 35 °F 40 °F 48 °F (2002)
Min Temperature 28 °F 28 °F - (2001)
Degree Days  
Heating Degree Days 34    
Moisture  
Dew Point 30 °F    
Average Humidity 87    
Maximum Humidity 100    
Minimum Humidity 70    
Precipitation  
Precipitation 0.00 in - - ()
Sea Level Pressure  
Sea Level Pressure 29.73 in    
Wind  
Wind Speed 11 mph ()    
Max Wind Speed 16 mph    
Max Gust Speed 27 mph    
Visibility 4.4 miles    
Events Snow    
Averages and records for this station are not official NWS values.
T = Trace of Precipitation, MM = Missing Value Source: Averaged Metar Reports

Daily Weather History Graph

Daily Weather History Graph

Search for Another Location

Airport:

Trip Planner

Search our weather history database for the weather conditions in past years. The results will help you decide how hot, cold, wet, or windy it might be!

Date:

Astronomy

Dec. 03, 2012 Rise Set
Actual Time 7:08 AM CET 3:53 PM CET
Civil Twilight 6:33 AM CET 4:28 PM CET
Nautical Twilight 5:55 AM CET 5:06 PM CET
Astronomical Twilight 5:18 AM CET 5:42 PM CET
Moon 8:31 PM CET (12/3) 10:13 AM CET (12/3)
Length of Visible Light 9h 54m
Length of Day
8h 45m
Waning Gibbous, 80% of the Moon is Illuminated
Dec 3
Waning Gibbous
Dec 6
Last Quarter
Dec 13
New
Dec 20
First Quarter
Dec 28
Full

Hourly Weather History & Observations

Time (CET) Temp. Windchill Dew Point Humidity Pressure Visibility Wind Dir Wind Speed Gust Speed Precip Events Conditions
12:15 AM 35.6 °F 26.8 °F 33.8 °F 93% 29.65 in 5.0 mi NW 13.4 mph - N/A   Overcast
12:45 AM 35.6 °F 27.7 °F 33.8 °F 93% 29.65 in 6.2 mi NW 11.2 mph - N/A   Overcast
1:15 AM 35.6 °F 26.8 °F 33.8 °F 93% 29.68 in 6.2 mi NW 13.4 mph - N/A   Overcast
1:45 AM 35.6 °F 26.8 °F 33.8 °F 93% 29.65 in 6.2 mi NW 13.4 mph - N/A   Ice Pellets
2:15 AM 33.8 °F 25.4 °F 33.8 °F 100% 29.68 in 3.7 mi NW 11.2 mph - N/A Snow Light Snow
2:32 AM 33.8 °F 24.5 °F 33.8 °F 100% 29.65 in 3.1 mi NW 13.4 mph - N/A Snow Light Snow
2:45 AM 33.8 °F 24.5 °F 33.8 °F 100% 29.65 in 3.1 mi NW 13.4 mph - N/A Snow Light Snow
3:15 AM 33.8 °F 24.5 °F 33.8 °F 100% 29.65 in 1.9 mi WNW 13.4 mph - N/A Snow Snow
3:45 AM 32.0 °F 22.2 °F 32.0 °F 100% 29.65 in 1.9 mi WNW 13.4 mph - N/A Snow Snow
4:15 AM 32.0 °F 22.2 °F 32.0 °F 100% 29.65 in 1.9 mi WNW 13.4 mph - N/A Snow Snow
4:45 AM 32.0 °F 21.4 °F 32.0 °F 100% 29.65 in 1.9 mi WNW 15.7 mph - N/A Snow Light Snow
5:00 AM - - - N/A% - 5.0 mi NW 13.4 mph - N/A   Overcast
5:15 AM 32.0 °F 22.2 °F 32.0 °F 100% 29.65 in 2.5 mi NW 13.4 mph - N/A Snow Light Snow
5:45 AM - - - N/A% - 3.7 mi NW 15.7 mph 26.8 mph N/A   Mostly Cloudy
6:15 AM 33.8 °F 24.5 °F 32.0 °F 93% 29.65 in 3.7 mi WNW 13.4 mph - N/A Snow Light Snow
6:45 AM 33.8 °F 24.5 °F 32.0 °F 93% 29.68 in 4.3 mi WNW 13.4 mph - N/A   Overcast
7:13 AM - - - N/A% - 5.0 mi NW 15.7 mph 26.8 mph N/A   Mostly Cloudy
7:15 AM 33.8 °F 24.5 °F 32.0 °F 93% 29.68 in 5.0 mi WNW 13.4 mph - N/A   Overcast
7:45 AM 33.8 °F 24.5 °F 32.0 °F 93% 29.68 in 5.0 mi WNW 13.4 mph - N/A   Overcast
8:15 AM 33.8 °F 24.5 °F 32.0 °F 93% 29.68 in 5.0 mi NW 13.4 mph - N/A   Overcast
8:45 AM - - - N/A% - 6.2 mi NW 15.7 mph 26.8 mph N/A   Mostly Cloudy
9:15 AM 33.8 °F 24.5 °F 32.0 °F 93% 29.71 in 5.6 mi NW 13.4 mph - N/A   Overcast
9:45 AM 33.8 °F 24.5 °F 32.0 °F 93% 29.71 in 5.6 mi NW 13.4 mph - N/A   Overcast
9:59 AM 33.8 °F 25.4 °F 32.0 °F 93% 29.71 in 5.0 mi NW 11.2 mph - N/A Snow Light Snow
10:15 AM 33.8 °F 25.4 °F 32.0 °F 93% 29.74 in 5.0 mi NW 11.2 mph - N/A Snow Light Snow
10:38 AM 33.8 °F 25.4 °F 32.0 °F 93% 29.74 in 1.9 mi NW 11.2 mph - N/A Snow Snow
10:39 AM - - - N/A% - 6.2 mi NW 15.7 mph 26.8 mph N/A   Overcast
10:45 AM 33.8 °F 25.4 °F 32.0 °F 93% 29.74 in 1.9 mi NW 11.2 mph - N/A Snow Light Snow
11:15 AM 33.8 °F 25.4 °F 32.0 °F 93% 29.74 in 3.1 mi NW 11.2 mph - N/A Snow Light Snow
11:45 AM - - - N/A% - 6.2 mi NW 13.4 mph 26.8 mph N/A   Mostly Cloudy
12:15 PM 33.8 °F 25.4 °F 32.0 °F 93% 29.74 in 4.3 mi NW 11.2 mph - N/A Snow Light Snow
12:45 PM 33.8 °F 25.4 °F 30.2 °F 87% 29.74 in 5.0 mi NW 11.2 mph - N/A Snow Light Snow
1:15 PM 35.6 °F 27.7 °F 28.4 °F 75% 29.74 in 6.2 mi NW 11.2 mph 22.4 mph N/A   Mostly Cloudy
1:45 PM 35.6 °F 27.7 °F 28.4 °F 75% 29.74 in 6.2 mi NW 11.2 mph 22.4 mph N/A Snow Light Snow
2:15 PM 35.6 °F 28.7 °F 28.4 °F 75% 29.74 in 6.2 mi WNW 8.9 mph - N/A Snow Light Snow
2:45 PM - - - N/A% - 6.2 mi WNW 11.2 mph - N/A   Mostly Cloudy
3:15 PM 35.6 °F 27.7 °F 28.4 °F 75% 29.77 in 6.2 mi NW 11.2 mph - N/A   Mostly Cloudy
3:45 PM 35.6 °F 27.7 °F 28.4 °F 75% 29.77 in 6.2 mi NW 11.2 mph - N/A   Mostly Cloudy
4:15 PM 35.6 °F 26.0 °F 26.6 °F 70% 29.77 in 6.2 mi WNW 15.7 mph - N/A   Mostly Cloudy
4:45 PM 35.6 °F 26.8 °F 26.6 °F 70% 29.80 in 6.2 mi WNW 13.4 mph - N/A   Mostly Cloudy
5:15 PM 33.8 °F 25.4 °F 26.6 °F 75% 29.80 in - WNW 11.2 mph - N/A   Clear
5:45 PM - - - N/A% - 0.2 mi WNW 11.2 mph - N/A   Clear
6:15 PM 33.8 °F 26.5 °F 26.6 °F 75% 29.80 in - WNW 8.9 mph - N/A   Clear
6:45 PM 33.8 °F 26.5 °F 26.6 °F 75% 29.80 in - WNW 8.9 mph - N/A   Clear
7:15 PM 33.8 °F 26.5 °F 26.6 °F 75% 29.83 in - WNW 8.9 mph - N/A   Clear
7:45 PM 33.8 °F 26.5 °F 26.6 °F 75% 29.83 in - WNW 8.9 mph - N/A   Clear
8:15 PM 32.0 °F 24.3 °F 26.6 °F 80% 29.83 in - WNW 8.9 mph - N/A   Clear
8:45 PM - - - N/A% - 2.5 mi West 8.9 mph - N/A   Clear
9:15 PM 30.2 °F 22.1 °F 24.8 °F 80% 29.83 in - WNW 8.9 mph - N/A   Clear
9:45 PM 28.4 °F 19.9 °F 24.8 °F 86% 29.86 in - WNW 8.9 mph - N/A   Clear
10:15 PM 30.2 °F 23.5 °F 23.0 °F 75% 29.86 in - WNW 6.7 mph - N/A   Clear
10:45 PM 30.2 °F 23.5 °F 23.0 °F 75% 29.86 in - WNW 6.7 mph - N/A   Clear
11:15 PM 28.4 °F 21.4 °F 23.0 °F 80% 29.86 in - West 6.7 mph - N/A   Clear
11:45 PM - - - N/A% - 2.5 mi North - - N/A   Mist